sat.trackr.live / text

‹ back to catalog

ONEWEB-0612

NORAD 54675 · 2022-166AK

PAYLOAD ACTIVE UNKNOWN

§ Identity

Operator
Country
UK
Launch date
2022-12-08
Launch site
AFETR
Launch vehicle
Mass (kg)
RCS (m²)

Purposes: comms

External: N2YO · Heavens-Above · Gunter

§ Orbital elements

Epoch: 2026-09-19T15:56:32.341344Z

Period
108.94 min
Inclination
87.9286°
Eccentricity
0.0002172
Mean motion
13.21826536 rev/d
Perigee alt
1,176.1 km
Apogee alt
1,179.4 km
Semi-major
7,555.9 km
B*
-4.0667e-5
RAAN
225.1739°
Arg perigee
82.4876°
Mean anomaly
277.6505°
Rev number
18,391

§ Raw data

ONEWEB-06121 54675U 22166AK  26262.66426321 -.00000004  00000+0 -40667-4 0  99942 54675  87.9286 225.1739 0002172  82.4876 277.6505 13.21826536183916

JSON: /api/v1/satellites/54675 · /tle

For live sub-satellite position, see the globe view (requires WebGL).

§ Visibility from observer

Set your observer location to see the next 7 days of passes ≥ 10°. The values pass through the URL so the page stays shareable.

No JS? Fill the form by hand. The geolocation button needs JavaScript.